DW9210 Weather Reports


Display with metric or nautical units.
time (UTC)temp
F
wind
direction
speed
MPH
gust
MPH
rain 1hr
in
rain 24hr
in
rain mn
in
humidity
%
barometer
mb
20260904135503 87 258 2.0 4.0 0.00 0.00 0.00 76 1014.3
20260904135003 86 255 2.0 4.0 0.00 0.00 0.00 76 1014.3
20260904134503 86 248 1.0 4.0 0.00 0.00 0.00 76 1014.3
20260904134003 85 246 1.0 4.0 0.00 0.00 0.00 76 1014.3
20260904133503 85 236 2.0 4.0 0.00 0.00 0.00 78 1014.3
20260904133003 85 230 2.0 4.0 0.00 0.00 0.00 77 1014.3
20260904132503 84 238 1.0 4.0 0.00 0.00 0.00 77 1014.3
20260904132003 84 256 1.0 2.0 0.00 0.00 0.00 80 1014.4
20260904131503 83 246 0.0 2.0 0.00 0.00 0.00 81 1014.4
20260904131003 82 198 0.0 2.0 0.00 0.00 0.00 83 1014.4
20260904130503 81 203 0.0 2.0 0.00 0.00 0.00 84 1014.4
20260904130003 81 230 0.0 2.0 0.00 0.00 0.00 86 1014.4
20260904125503 80 0 0.0 0.0 0.00 0.00 0.00 87 1014.5
20260904125003 80 175 0.0 1.0 0.00 0.00 0.00 89 1014.4
20260904124503 79 175 0.0 1.0 0.00 0.00 0.00 92 1014.4
20260904124003 78 0 0.0 0.0 0.00 0.00 0.00 94 1014.4
20260904123503 77 0 0.0 0.0 0.00 0.00 0.00 94 1014.4
20260904123024 76 0 0.0 0.0 0.00 0.00 0.00 95 1014.3
20260904122503 75 0 0.0 0.0 0.00 0.00 0.00 96 1014.1
20260904122003 75 0 0.0 0.0 0.00 0.00 0.00 96 1014.2
20260904121503 74 0 0.0 0.0 0.00 0.00 0.00 97 1014.1
20260904121003 74 0 0.0 0.0 0.00 0.00 0.00 97 1014.2
20260904120503 73 0 0.0 0.0 0.00 0.00 0.00 97 1014.1
20260904120003 72 0 0.0 0.0 0.00 0.00 0.00 97 1014.0
20260904115503 72 0 0.0 0.0 0.00 0.00 0.00 97 1014.0
20260904115003 72 0 0.0 0.0 0.00 0.00 0.00 97 1013.9
20260904114503 71 0 0.0 0.0 0.00 0.00 0.00 97 1013.9
20260904114003 71 0 0.0 0.0 0.00 0.00 0.00 97 1013.9
20260904113503 71 0 0.0 0.0 0.00 0.00 0.00 97 1013.8
20260904113003 71 0 0.0 0.0 0.00 0.00 0.00 97 1013.8
20260904112503 71 0 0.0 0.0 0.00 0.00 0.00 97 1013.8
20260904112003 71 0 0.0 0.0 0.00 0.00 0.00 97 1013.7
20260904111503 71 0 0.0 0.0 0.00 0.00 0.00 96 1013.7
20260904111003 71 0 0.0 0.0 0.00 0.00 0.00 96 1013.7
20260904110503 71 0 0.0 0.0 0.00 0.00 0.00 97 1013.6
20260904110003 71 0 0.0 0.0 0.00 0.00 0.00 96 1013.5
20260904105503 71 0 0.0 0.0 0.00 0.00 0.00 97 1013.5
20260904105003 71 0 0.0 0.0 0.00 0.00 0.00 97 1013.5
20260904104524 71 0 0.0 0.0 0.00 0.00 0.00 97 1013.5
20260904104003 71 0 0.0 0.0 0.00 0.00 0.00 97 1013.4
20260904103503 71 0 0.0 0.0 0.00 0.00 0.00 97 1013.4
20260904103003 71 0 0.0 0.0 0.00 0.00 0.00 97 1013.4
20260904102503 71 0 0.0 0.0 0.00 0.00 0.00 97 1013.3
20260904102003 71 0 0.0 0.0 0.00 0.00 0.00 97 1013.4
20260904101503 71 0 0.0 0.0 0.00 0.00 0.00 96 1013.4
20260904101003 71 0 0.0 0.0 0.00 0.00 0.00 96 1013.3
20260904100503 71 0 0.0 0.0 0.00 0.00 0.00 96 1013.3
20260904100003 71 0 0.0 0.0 0.00 0.00 0.00 96 1013.2
20260904095503 71 0 0.0 0.0 0.00 0.00 0.00 96 1013.2
20260904095003 72 0 0.0 0.0 0.00 0.00 0.00 96 1013.2
20260904094503 72 0 0.0 0.0 0.00 0.00 0.00 97 1013.2
20260904094003 72 0 0.0 0.0 0.00 0.00 0.00 97 1013.2
20260904093503 72 0 0.0 0.0 0.00 0.00 0.00 96 1013.1
20260904093003 72 0 0.0 0.0 0.00 0.00 0.00 96 1013.2
20260904092503 71 0 0.0 0.0 0.00 0.00 0.00 96 1013.2
20260904092003 71 0 0.0 0.0 0.00 0.00 0.00 96 1013.2
20260904091524 71 0 0.0 0.0 0.00 0.00 0.00 96 1013.2
20260904091003 71 0 0.0 0.0 0.00 0.00 0.00 96 1013.2
20260904090503 72 0 0.0 0.0 0.00 0.00 0.00 96 1013.2
20260904090003 72 0 0.0 0.0 0.00 0.00 0.00 96 1013.2
20260904085503 72 0 0.0 0.0 0.00 0.00 0.00 96 1013.3
20260904085003 72 0 0.0 0.0 0.00 0.00 0.00 96 1013.2
20260904084503 72 0 0.0 0.0 0.00 0.00 0.00 96 1013.2
20260904084003 72 0 0.0 0.0 0.00 0.00 0.00 96 1013.1
20260904083503 72 0 0.0 0.0 0.00 0.00 0.00 96 1013.1
20260904083003 72 0 0.0 0.0 0.00 0.00 0.00 96 1013.1
20260904082503 72 0 0.0 0.0 0.00 0.00 0.00 96 1013.2
20260904082003 72 0 0.0 0.0 0.00 0.00 0.00 96 1013.1
20260904081503 72 0 0.0 0.0 0.00 0.00 0.00 95 1013.1
20260904081003 72 0 0.0 0.0 0.00 0.00 0.00 96 1013.1
20260904080503 72 0 0.0 0.0 0.00 0.00 0.00 96 1013.1
20260904080003 72 0 0.0 0.0 0.00 0.00 0.00 96 1013.0
20260904075503 72 0 0.0 0.0 0.00 0.00 0.00 96 1013.1
20260904075003 72 0 0.0 0.0 0.00 0.00 0.00 96 1013.0
20260904074524 72 0 0.0 0.0 0.00 0.00 0.00 96 1013.0
20260904074003 72 0 0.0 0.0 0.00 0.00 0.00 96 1012.9
20260904073503 73 0 0.0 0.0 0.00 0.00 0.00 95 1013.0
20260904073003 73 0 0.0 0.0 0.00 0.00 0.00 95 1012.9
20260904072503 73 0 0.0 0.0 0.00 0.00 0.00 95 1013.0
20260904072003 73 0 0.0 0.0 0.00 0.00 0.00 95 1013.0
20260904071524 73 0 0.0 0.0 0.00 0.00 0.00 96 1013.0
20260904071003 73 0 0.0 0.0 0.00 0.00 0.00 96 1013.0
20260904070503 73 0 0.0 0.0 0.00 0.00 0.00 96 1013.2
20260904070024 73 0 0.0 0.0 0.00 0.00 0.00 95 1013.2
20260904065503 73 0 0.0 0.0 0.00 0.00 0.00 95 1013.2
20260904065003 73 0 0.0 0.0 0.00 0.00 0.00 95 1013.2
20260904064503 73 0 0.0 0.0 0.00 0.00 0.00 95 1013.3
20260904064003 73 0 0.0 0.0 0.00 0.00 0.00 95 1013.3
20260904063503 73 0 0.0 0.0 0.00 0.00 0.00 95 1013.3
20260904063003 73 0 0.0 0.0 0.00 0.00 0.00 95 1013.4
20260904062524 74 0 0.0 0.0 0.00 0.00 0.00 95 1013.4
20260904062003 74 0 0.0 0.0 0.00 0.00 0.00 95 1013.4
20260904061503 74 0 0.0 0.0 0.00 0.00 0.00 95 1013.4
20260904061003 73 0 0.0 0.0 0.00 0.00 0.00 95 1013.5
20260904060503 73 0 0.0 0.0 0.00 0.00 0.00 95 1013.6
20260904060003 74 0 0.0 0.0 0.00 0.00 0.00 95 1013.6
20260904055503 74 0 0.0 0.0 0.00 0.00 0.00 95 1013.6
20260904055003 74 0 0.0 0.0 0.00 0.00 0.00 94 1013.5
20260904054503 74 0 0.0 0.0 0.00 0.00 0.00 95 1013.5
20260904054003 74 0 0.0 0.0 0.00 0.00 0.00 95 1013.6
20260904053503 74 0 0.0 0.0 0.00 0.00 0.00 95 1013.6
20260904053003 74 0 0.0 0.0 0.00 0.00 0.00 94 1013.7
20260904052524 74 0 0.0 0.0 0.00 0.00 0.00 94 1013.8
20260904052003 74 0 0.0 0.0 0.00 0.00 0.00 94 1013.7
20260904051503 74 0 0.0 0.0 0.00 0.00 0.00 94 1013.6
20260904051003 75 0 0.0 0.0 0.00 0.00 0.00 94 1013.6
20260904050524 75 0 0.0 0.0 0.00 0.00 0.00 94 1013.6
20260904050003 75 0 0.0 0.0 0.00 0.00 0.00 94 1013.6
20260904045503 75 0 0.0 0.0 0.00 0.00 0.00 94 1013.7
20260904045003 75 0 0.0 0.0 0.00 0.00 0.00 94 1013.7
20260904044503 75 0 0.0 0.0 0.00 0.00 0.00 94 1013.7
20260904044003 75 0 0.0 0.0 0.00 0.00 0.00 94 1013.6
20260904043503 75 0 0.0 0.0 0.00 0.00 0.00 94 1013.6
20260904043003 75 0 0.0 0.0 0.00 0.00 0.00 94 1013.6
20260904042503 75 0 0.0 0.0 0.00 0.00 0.00 94 1013.6
20260904042003 75 0 0.0 0.0 0.00 0.00 0.00 94 1013.6
20260904041503 75 0 0.0 0.0 0.00 0.00 0.00 94 1013.6
20260904041003 75 0 0.0 0.0 0.00 0.00 0.00 94 1013.5
20260904040503 75 0 0.0 0.0 0.00 0.00 0.00 93 1013.5
20260904040003 75 0 0.0 0.0 0.00 0.00 0.00 93 1013.5
20260904035503 75 0 0.0 0.0 0.00 0.00 0.00 94 1013.5
20260904035003 75 0 0.0 0.0 0.00 0.00 0.00 93 1013.5
20260904034503 76 0 0.0 0.0 0.00 0.00 0.00 94 1013.5
20260904034003 76 0 0.0 0.0 0.00 0.00 0.00 94 1013.7
20260904033503 75 0 0.0 0.0 0.00 0.00 0.00 93 1013.7
20260904033003 75 0 0.0 0.0 0.00 0.00 0.00 92 1013.8
20260904032503 76 0 0.0 0.0 0.00 0.00 0.00 93 1013.8
20260904032003 76 0 0.0 0.0 0.00 0.00 0.00 93 1013.8
20260904031503 76 0 0.0 0.0 0.00 0.00 0.00 93 1013.9
20260904031003 76 0 0.0 0.0 0.00 0.00 0.00 93 1014.0
20260904030503 76 0 0.0 0.0 0.00 0.00 0.00 93 1014.0
20260904030003 76 0 0.0 0.0 0.00 0.00 0.00 92 1014.1
20260904025503 76 0 0.0 0.0 0.00 0.00 0.00 92 1014.2
20260904025003 76 0 0.0 0.0 0.00 0.00 0.00 92 1014.0
20260904024524 77 0 0.0 0.0 0.00 0.00 0.00 92 1014.1
20260904024003 77 0 0.0 0.0 0.00 0.00 0.00 92 1014.1
20260904023524 77 0 0.0 0.0 0.00 0.00 0.00 92 1014.0
20260904023003 77 0 0.0 0.0 0.00 0.00 0.00 91 1014.1
20260904022524 77 0 0.0 0.0 0.00 0.00 0.00 91 1014.1
20260904022003 77 0 0.0 0.0 0.00 0.00 0.00 91 1014.1
20260904021503 77 0 0.0 0.0 0.00 0.00 0.00 91 1014.2
20260904021003 77 0 0.0 0.0 0.00 0.00 0.00 91 1014.2
20260904020503 78 0 0.0 0.0 0.00 0.00 0.00 90 1014.1
20260904020003 78 0 0.0 0.0 0.00 0.00 0.00 90 1014.1
20260904015503 78 0 0.0 0.0 0.00 0.00 0.00 90 1014.1
20260904015024 78 0 0.0 0.0 0.00 0.00 0.00 89 1014.2
20260904014524 78 0 0.0 0.0 0.00 0.00 0.00 89 1014.1
20260904014003 79 0 0.0 0.0 0.00 0.00 0.00 89 1014.0
20260904013503 79 0 0.0 0.0 0.00 0.00 0.00 89 1013.9
20260904013003 79 0 0.0 0.0 0.00 0.00 0.00 88 1013.9
20260904012503 79 0 0.0 0.0 0.00 0.00 0.00 87 1013.9
20260904012003 80 0 0.0 0.0 0.00 0.00 0.00 86 1013.8
20260904011503 80 0 0.0 0.0 0.00 0.00 0.00 86 1013.7
20260904011003 80 0 0.0 0.0 0.00 0.00 0.00 86 1013.6
20260904010503 80 0 0.0 0.0 0.00 0.00 0.00 86 1013.7
20260904010024 81 0 0.0 0.0 0.00 0.00 0.00 85 1013.6
20260904005503 81 0 0.0 0.0 0.00 0.00 0.00 84 1013.6
20260904005003 81 0 0.0 0.0 0.00 0.00 0.00 83 1013.4
20260904004503 82 0 0.0 0.0 0.00 0.00 0.00 82 1013.5
20260904004003 82 0 0.0 0.0 0.00 0.00 0.00 81 1013.4
20260904003524 83 0 0.0 0.0 0.00 0.00 0.00 79 1013.4
20260904003003 83 0 0.0 0.0 0.00 0.00 0.00 77 1013.3
20260904002503 84 0 0.0 0.0 0.00 0.00 0.00 76 1013.1
20260904002024 84 0 0.0 0.0 0.00 0.00 0.00 75 1013.1
20260904001503 85 263 0.0 1.0 0.00 0.00 0.00 73 1013.0
20260904001003 86 263 0.0 1.0 0.00 0.00 0.00 71 1012.9
20260904000503 87 263 0.0 1.0 0.00 0.00 0.00 71 1012.9
20260904000003 88 263 0.0 1.0 0.00 0.00 0.00 71 1012.9
20260903235503 88 263 0.0 1.0 0.00 0.00 0.00 70 1012.8
20260903235003 89 263 0.0 2.0 0.00 0.00 0.00 68 1012.8
20260903234503 89 253 0.0 2.0 0.00 0.00 0.00 64 1012.9
20260903234003 90 235 0.0 2.0 0.00 0.00 0.00 64 1012.8
20260903233503 91 238 0.0 2.0 0.00 0.00 0.00 61 1012.8
20260903233003 91 241 1.0 2.0 0.00 0.00 0.00 60 1012.8
20260903232503 92 245 1.0 3.0 0.00 0.00 0.00 58 1012.7
20260903232024 92 243 2.0 6.0 0.00 0.00 0.00 56 1012.7
20260903231503 93 245 2.0 6.0 0.00 0.00 0.00 56 1012.7
20260903231003 93 255 2.0 3.0 0.00 0.00 0.00 54 1012.7
20260903230503 94 253 2.0 5.0 0.00 0.00 0.00 54 1012.6
20260903230003 94 251 2.0 5.0 0.00 0.00 0.00 53 1012.6
20260903225503 94 256 2.0 5.0 0.00 0.00 0.00 52 1012.6
20260903225003 95 256 2.0 5.0 0.00 0.00 0.00 52 1012.5
20260903224503 95 260 2.0 5.0 0.00 0.00 0.00 53 1012.6
20260903224003 95 271 2.0 5.0 0.00 0.00 0.00 55 1012.6
20260903223503 95 255 3.0 8.0 0.00 0.00 0.00 56 1012.6
20260903223024 95 241 3.0 8.0 0.00 0.00 0.00 53 1012.6
20260903222503 95 245 3.0 8.0 0.00 0.00 0.00 51 1012.6
20260903222024 96 261 3.0 8.0 0.00 0.00 0.00 53 1012.5
20260903221503 96 253 3.0 7.0 0.00 0.00 0.00 54 1012.5
20260903221003 96 242 3.0 7.0 0.00 0.00 0.00 49 1012.5
20260903220524 97 248 2.0 6.0 0.00 0.00 0.00 50 1012.5
20260903220003 97 254 3.0 8.0 0.00 0.00 0.00 51 1012.5
20260903215503 97 255 3.0 8.0 0.00 0.00 0.00 50 1012.5
20260903215003 97 264 3.0 7.0 0.00 0.00 0.00 51 1012.5
20260903214503 97 257 3.0 7.0 0.00 0.00 0.00 52 1012.4
20260903214003 97 241 2.0 7.0 0.00 0.00 0.00 52 1012.4
20260903213503 97 252 1.0 5.0 0.00 0.00 0.00 51 1012.4
20260903213024 97 257 2.0 5.0 0.00 0.00 0.00 53 1012.5
20260903212503 97 249 1.0 5.0 0.00 0.00 0.00 55 1012.6
20260903212003 97 241 2.0 6.0 0.00 0.00 0.00 50 1012.6
20260903211503 97 241 4.0 10.0 0.00 0.00 0.00 49 1012.6
20260903211003 97 249 4.0 10.0 0.00 0.00 0.00 49 1012.7
20260903210503 97 272 3.0 7.0 0.00 0.00 0.00 50 1012.7
20260903210024 97 273 3.0 6.0 0.00 0.00 0.00 54 1012.8
20260903205524 97 258 2.0 5.0 0.00 0.00 0.00 51 1012.8
20260903205003 97 258 2.0 6.0 0.00 0.00 0.00 51 1012.9
20260903204524 97 261 3.0 7.0 0.00 0.00 0.00 52 1013.0
20260903204024 97 264 3.0 8.0 0.00 0.00 0.00 53 1013.1
20260903203503 97 274 3.0 8.0 0.00 0.00 0.00 52 1013.1
20260903203003 96 285 3.0 6.0 0.00 0.00 0.00 54 1013.1
20260903202503 96 284 2.0 6.0 0.00 0.00 0.00 55 1013.2
20260903202003 96 251 2.0 6.0 0.00 0.00 0.00 53 1013.2
20260903201503 95 247 3.0 7.0 0.00 0.00 0.00 54 1013.3
20260903201003 95 273 2.0 7.0 0.00 0.00 0.00 54 1013.3
20260903200503 95 285 2.0 4.0 0.00 0.00 0.00 57 1013.4
20260903200003 96 287 2.0 4.0 0.00 0.00 0.00 57 1013.5
20260903195524 96 277 3.0 6.0 0.00 0.00 0.00 56 1013.5
20260903195003 96 277 3.0 6.0 0.00 0.00 0.00 55 1013.6
20260903194503 96 287 2.0 6.0 0.00 0.00 0.00 58 1013.6
20260903194003 96 275 2.0 9.0 0.00 0.00 0.00 54 1013.7
20260903193524 96 274 4.0 9.0 0.00 0.00 0.00 55 1013.7
20260903193003 96 270 4.0 8.0 0.00 0.00 0.00 55 1013.7
20260903192503 95 274 3.0 8.0 0.00 0.00 0.00 53 1013.7
20260903192003 95 295 3.0 6.0 0.00 0.00 0.00 59 1013.8
20260903191503 95 293 3.0 6.0 0.00 0.00 0.00 55 1013.9
20260903191003 95 285 3.0 7.0 0.00 0.00 0.00 55 1014.0
20260903190503 95 290 3.0 7.0 0.00 0.00 0.00 57 1014.1
20260903190003 95 291 2.0 5.0 0.00 0.00 0.00 59 1014.0
20260903185503 96 272 3.0 9.0 0.00 0.00 0.00 57 1014.1
20260903185003 96 267 4.0 11.0 0.00 0.00 0.00 51 1014.1
20260903184503 97 270 3.0 11.0 0.00 0.00 0.00 57 1014.2
20260903184003 97 251 3.0 6.0 0.00 0.00 0.00 54 1014.2
20260903183503 96 256 4.0 10.0 0.00 0.00 0.00 52 1014.2
20260903183003 96 268 3.0 10.0 0.00 0.00 0.00 51 1014.3
20260903182524 96 290 2.0 8.0 0.00 0.00 0.00 56 1014.3
20260903182024 96 278 3.0 8.0 0.00 0.00 0.00 56 1014.3
20260903181503 96 253 3.0 8.0 0.00 0.00 0.00 51 1014.4
20260903181003 96 247 3.0 8.0 0.00 0.00 0.00 51 1014.4
20260903180503 96 262 4.0 8.0 0.00 0.00 0.00 52 1014.5
20260903180024 96 261 3.0 8.0 0.00 0.00 0.00 53 1014.5
20260903175503 96 257 3.0 9.0 0.00 0.00 0.00 56 1014.6
20260903175003 95 251 4.0 10.0 0.00 0.00 0.00 51 1014.6
20260903174524 95 245 2.0 10.0 0.00 0.00 0.00 52 1014.7
20260903174003 95 268 2.0 5.0 0.00 0.00 0.00 54 1014.7
20260903173503 95 288 2.0 5.0 0.00 0.00 0.00 52 1014.8
20260903173003 95 282 3.0 8.0 0.00 0.00 0.00 55 1014.8
20260903172503 95 272 4.0 8.0 0.00 0.00 0.00 51 1014.8
20260903172003 95 266 3.0 7.0 0.00 0.00 0.00 59 1014.9
20260903171503 94 269 4.0 10.0 0.00 0.00 0.00 59 1014.9
20260903171003 94 277 4.0 10.0 0.00 0.00 0.00 53 1014.9
20260903170503 94 269 4.0 9.0 0.00 0.00 0.00 58 1014.9
20260903170003 94 264 4.0 9.0 0.00 0.00 0.00 52 1015.0
20260903165524 94 263 4.0 8.0 0.00 0.00 0.00 56 1015.0
20260903165003 94 254 4.0 8.0 0.00 0.00 0.00 53 1015.1
20260903164524 94 252 5.0 9.0 0.00 0.00 0.00 52 1015.2
20260903164003 94 248 3.0 9.0 0.00 0.00 0.00 52 1015.2
20260903163503 94 247 2.0 8.0 0.00 0.00 0.00 56 1015.2
20260903163003 94 256 3.0 8.0 0.00 0.00 0.00 57 1015.3
20260903162503 94 264 4.0 8.0 0.00 0.00 0.00 60 1015.3
20260903162003 94 273 3.0 8.0 0.00 0.00 0.00 54 1015.3
20260903161503 94 284 2.0 5.0 0.00 0.00 0.00 60 1015.3
20260903161003 93 285 2.0 5.0 0.00 0.00 0.00 60 1015.3
20260903160503 93 288 2.0 5.0 0.00 0.00 0.00 58 1015.3
20260903160003 93 283 3.0 6.0 0.00 0.00 0.00 58 1015.4
20260903155503 93 274 3.0 6.0 0.00 0.00 0.00 61 1015.4
20260903155003 93 268 2.0 6.0 0.00 0.00 0.00 59 1015.4
20260903154503 93 256 2.0 5.0 0.00 0.00 0.00 56 1015.4
20260903154003 92 229 2.0 4.0 0.00 0.00 0.00 60 1015.4
20260903153524 92 228 2.0 5.0 0.00 0.00 0.00 58 1015.4
20260903153024 92 230 2.0 5.0 0.00 0.00 0.00 59 1015.4
20260903152503 92 238 1.0 4.0 0.00 0.00 0.00 61 1015.4
20260903152003 92 296 1.0 3.0 0.00 0.00 0.00 62 1015.4
20260903151524 91 290 1.0 4.0 0.00 0.00 0.00 63 1015.5
20260903151003 90 266 2.0 5.0 0.00 0.00 0.00 65 1015.5
20260903150524 90 273 2.0 5.0 0.00 0.00 0.00 64 1015.3
20260903150024 90 278 2.0 4.0 0.00 0.00 0.00 67 1015.3
20260903145503 90 274 2.0 4.0 0.00 0.00 0.00 67 1015.4
20260903145003 90 279 1.0 4.0 0.00 0.00 0.00 69 1015.4
20260903144503 89 274 2.0 4.0 0.00 0.00 0.00 69 1015.3
20260903144003 89 287 2.0 4.0 0.00 0.00 0.00 72 1015.3
20260903143503 88 279 2.0 4.0 0.00 0.00 0.00 71 1015.3
20260903143024 88 258 3.0 5.0 0.00 0.00 0.00 72 1015.3
20260903142503 88 259 3.0 5.0 0.00 0.00 0.00 68 1015.3
20260903142003 87 269 2.0 5.0 0.00 0.00 0.00 69 1015.3
20260903141503 87 269 2.0 4.0 0.00 0.00 0.00 71 1015.3
20260903141003 87 278 2.0 4.0 0.00 0.00 0.00 71 1015.3
20260903140503 86 286 2.0 4.0 0.00 0.00 0.00 73 1015.3
20260903140003 86 280 3.0 6.0 0.00 0.00 0.00 75 1015.4